Погода в Горагорске

Россия / Чеченская Республика     43°30′04″N   45°05′00″E
темп.,
°C
ветер,
м/с
пор.,
м/с
влажн.,
%
обл.,
%
осадки,
мм/ч
давл.,
гПа
погр.,
м
8 августа, пн
пн800:00+20зсз2279100 0.0 101151
03:00+20з128299 0.1 101127
06:00+20з2379100 0.1 101395
09:00+22ссв575684 0.1 1014631
12:00+23св694683 0.0 1015866
15:00+26всв66403 0.0 10151112
18:00+25всв44472 0.0 1015920
21:00+20ююв11612 0.0 101511
9 августа, вт
вт900:00+19юз22670 0.0 101511
03:00+18ююз11710 0.0 101511
06:00+19ююз11690 0.0 101624
09:00+26всв35420 0.0 10151159
12:00+30всв55300 0.0 10142265
15:00+32в76242 0.0 10122989
18:00+29в782750 0.0 10121338
21:00+23юв49400 0.0 1014191
10 августа, ср
ср1000:00+20ююв22500 0.0 101314
03:00+18в12580 0.0 101212
06:00+19юв25620 0.0 1013147
09:00+27в79320 0.0 10111190
12:00+33в78230 0.0 10092098
15:00+34всв98210 0.0 10072514
18:00+30в88300 0.0 10081173
21:00+23в485411 0.0 1010324
11 августа, чт
чт1100:00+20всв12650 0.0 100823
03:00+19ссз01720 0.0 100711
06:00+21зюз12660 0.0 100865
09:00+27ссз324626 0.0 1008724
12:00+32ссз223432 0.0 10071342
15:00+35с33270 0.0 10062096
18:00+34св55310 0.0 1006977
21:00+24всв246711 0.5 100899
12 августа, пт
пт1200:00+22ююз017643 0.3 100911
03:00+22з22780 0.3 101016
06:00+22зсз12760 0.0 101164
09:00+28с33530 0.0 1011748
12:00+34ссв22340 0.0 10101508
15:00+37в552714 0.0 10082732
18:00+32всв910260 0.2 1010848
21:00+25всв48450 0.3 1011290